Flag for Ireland Weather past 2 weeks in Limerick, Ireland

Now
46 °F

Passing clouds.


Feels Like: 39 °F
Forecast: 41 / 49 °F
Wind: 17 mph from West

Location: Shannon Airport

Current Time: Dec 20, 2014 at 3:51:18 AM

Latest Report: Dec 20, 2014 at 3:00 AM


Visibility: N/A

Pressure: 30.30 "Hg

Humidity: 82%

Dew point: 41 °F

Location of LimerickLocation

Historic Weather in Limerick — Graph

°F

Limerick temperature yesterday

Maximum temperature yesterday: 48 °F (at 1:30 PM)
Minimum temperature yesterday: 43 °F (at 5:30 AM)
Average temperature yesterday: 45 °F

Past Weeks' High & Low Weather Summary

 TemperatureHumidityPressure
High55 °F (Dec 18, 9:00 AM)100% (Dec 6, 12:30 PM)30.42 "Hg (Dec 6, 12:30 PM)
Low32 °F (Dec 12, 7:00 AM)49% (Dec 10, 7:00 AM)29.27 "Hg (Dec 12, 1:30 AM)
Average45 °F87%29.94 "Hg
* Reported Dec 5 2:00 AM — Dec 20 2:30 AM, Limerick, Weather by CustomWeather, © 2014

Note: Actual official high and low records may vary slightly from our data, if they occured in-between our weather recording intervals... More about our weather records

Advertising

Limerick weather history for previous 24 hours

 ConditionsComfort  
Time TempWeatherWind HumidityBarometerVisibility
2:30 AM
Dec 20
45 °FPassing clouds.13 mph87%30.30 "HgN/A
2:00 AM45 °FPassing clouds.14 mph87%30.30 "HgN/A
1:30 AM45 °FPassing clouds.16 mph87%30.27 "HgN/A
1:00 AM45 °FPassing clouds.12 mph87%30.30 "HgN/A
12:30 AM45 °FPassing clouds.12 mph87%30.27 "HgN/A
12:00 AM45 °FSprinkles. Passing clouds.15 mph87%30.27 "HgN/A
11:30 PM
Dec 19
45 °FPassing clouds.15 mph81%30.27 "HgN/A
11:00 PM45 °FPassing clouds.15 mph81%30.27 "HgN/A
10:30 PM45 °FPartly cloudy.17 mph81%30.24 "HgN/A
10:00 PM45 °FPassing clouds.16 mph81%30.27 "HgN/A
9:30 PM45 °FSprinkles. Passing clouds.14 mph87%30.24 "HgN/A
9:00 PM45 °FPassing clouds.15 mph81%30.24 "HgN/A
8:30 PM45 °FPassing clouds.13 mph87%30.24 "HgN/A
8:00 PM45 °FPassing clouds.13 mph87%30.24 "HgN/A
7:30 PM45 °FPassing clouds.10 mph81%30.21 "HgN/A
7:00 PM45 °FSprinkles. Passing clouds.8 mph81%30.21 "HgN/A
6:30 PM45 °FPassing clouds.9 mph81%30.21 "HgN/A
6:00 PM45 °FPassing clouds.14 mph76%30.18 "HgN/A
5:30 PM45 °FSprinkles. Passing clouds.13 mph81%30.18 "HgN/A
5:00 PM45 °FSprinkles. Passing clouds.15 mph81%30.18 "HgN/A
4:30 PM45 °FPassing clouds.12 mph81%30.15 "HgN/A
4:00 PM46 °FScattered clouds.15 mph71%30.15 "HgN/A
3:30 PM46 °FScattered clouds.21 mph71%30.12 "HgN/A
3:00 PM46 °FScattered clouds.21 mph71%30.12 "HgN/A
2:30 PM46 °FScattered clouds.16 mph71%30.12 "HgN/A
2:00 PM48 °FScattered clouds.21 mph62%30.12 "HgN/A
1:30 PM48 °FPassing clouds.20 mph66%30.09 "HgN/A
1:00 PM46 °FPassing clouds.17 mph76%30.09 "HgN/A
12:30 PM46 °FScattered showers. Scattered clouds.15 mph76%30.09 "HgN/A
12:00 PM46 °FSprinkles. Scattered clouds.18 mph76%30.09 "HgN/A
11:30 AM46 °FScattered clouds.16 mph71%30.07 "HgN/A
11:00 AM45 °FScattered clouds.13 mph87%30.07 "HgN/A
10:30 AM45 °FPassing clouds.15 mph81%30.07 "HgN/A
10:00 AM45 °FSprinkles. Scattered clouds.10 mph81%30.04 "HgN/A
9:30 AM43 °FPassing clouds.18 mph81%30.04 "HgN/A
9:00 AM45 °FSprinkles. Scattered clouds.17 mph81%30.01 "HgN/A
8:30 AM45 °FPassing clouds.16 mph76%30.01 "HgN/A
8:00 AM43 °FPassing clouds.7 mph81%29.98 "HgN/A
7:30 AM43 °FPassing clouds.10 mph81%29.95 "HgN/A
7:00 AM45 °FPassing clouds.16 mph76%29.95 "HgN/A
6:30 AM45 °FPassing clouds.16 mph76%29.92 "HgN/A
6:00 AM45 °FPassing clouds.17 mph76%29.92 "HgN/A
5:30 AM43 °FPassing clouds.16 mph87%29.89 "HgN/A
5:00 AM45 °FLight rain. Passing clouds.17 mph76%29.89 "HgN/A
4:30 AM45 °FPassing clouds.17 mph76%29.89 "HgN/A
4:00 AM45 °FLight rain. Passing clouds.15 mph81%29.89 "Hg5 mi
3:30 AM45 °FPassing clouds.12 mph81%29.89 "HgN/A
3:00 AM45 °FPassing clouds.15 mph76%29.86 "HgN/A
Weather by CustomWeather, © 2014

See weather overviewHow to use our weather pages